Home > Weather > Olpe > Past weeks

Flag for Germany Weather for the Past 2 Weeks in Olpe, North Rhine-Westphalia, Germany

Now
30 °F

Light snow. Ice fog.


Feels Like: 18 °F
Forecast: 34 / 38 °F
Wind: 18 mph from Southeast

Location: Hessen

Current Time: Feb 13, 2016 at 4:24:31 PM

Latest Report: Feb 13, 2016 at 3:50 PM


Visibility: 0 mi

Pressure: 29.12 "Hg

Humidity: 100%

Dew point: 30 °F

Location of OlpeLocation

Historic Weather in Olpe — Graph

°F

Olpe Temperature Yesterday

Maximum temperature yesterday: 36 °F (at 4:50 PM)
Minimum temperature yesterday: 28 °F (at 8:20 AM)
Average temperature yesterday: 31 °F

High & Low Weather Summary for the Past Weeks

 TemperatureHumidityPressure
High50 °F (Feb 6, 1:50 PM)100% (Jan 29, 8:20 PM)30.24 "Hg (Jan 29, 8:20 PM)
Low25 °F (Feb 13, 7:50 AM)76% (Feb 6, 2:50 PM)28.91 "Hg (Feb 9, 5:20 PM)
Average38 °F96%29.73 "Hg
* Reported Jan 29 2:20 PM — Feb 13 2:50 PM, Olpe, Weather by CustomWeather, © 2016

Note: Actual official high and low records may vary slightly from our data, if they occured in-between our weather recording intervals... More about our weather records

Advertising

Olpe Weather History for the Previous 24 Hours

 ConditionsComfort  
Time TempWeatherWind HumidityBarometerVisibility
2:50 PM
Sat, Feb 13
30 °FLight snow. More clouds than sun.15 mph100%29.15 "Hg1 mi
2:20 PM30 °FLight snow. More clouds than sun.16 mph100%29.15 "Hg2 mi
1:50 PM30 °FIce fog.15 mph100%29.18 "Hg2 mi
1:20 PM30 °FLow clouds.14 mph100%29.18 "Hg4 mi
12:50 PM30 °FPartly sunny.14 mph93%29.21 "Hg5 mi
12:20 PM30 °FPartly sunny.13 mph100%29.21 "HgN/A
11:50 AM30 °FPartly sunny.13 mph100%29.21 "Hg5 mi
11:20 AM30 °FPartly sunny.15 mph100%29.24 "Hg5 mi
10:50 AM30 °FPartly sunny.12 mph100%29.24 "Hg5 mi
10:20 AM30 °FPartly sunny.9 mph93%29.27 "Hg5 mi
9:50 AM28 °FBroken clouds.9 mph100%29.27 "Hg6 mi
9:20 AM28 °FPartly sunny.9 mph100%29.27 "HgN/A
8:50 AM27 °FPartly sunny.7 mph100%29.27 "Hg6 mi
8:20 AM25 °FSunny.6 mph100%29.30 "Hg10 mi
7:50 AM25 °FSunny.9 mph100%29.30 "Hg10 mi
8:50 PM
Fri, Feb 12
30 °FClear.13 mph93%29.36 "Hg10 mi
8:20 PM30 °FClear.15 mph93%29.36 "Hg10 mi
7:50 PM30 °FClear.14 mph93%29.39 "Hg10 mi
7:20 PM30 °FClear.13 mph100%29.39 "Hg10 mi
6:50 PM30 °FClear.13 mph93%29.39 "Hg10 mi
6:20 PM30 °FPassing clouds.13 mph93%29.39 "HgN/A
5:50 PM30 °FPassing clouds.12 mph93%29.39 "HgN/A
5:20 PM32 °FScattered clouds.10 mph87%29.39 "HgN/A
4:50 PM36 °FScattered clouds.10 mph81%29.39 "HgN/A
4:20 PM34 °FScattered clouds.15 mph81%29.39 "HgN/A
Weather by CustomWeather, © 2016

See weather overviewHow to use our weather pages